| time (UTC) | temp F | wind direction | speed MPH | gust MPH | rain 1hr in | rain 24hr in | rain mn in | humidity % | barometer mb |
| 20260503055127 | 50 | 113 | 1.0 | 2.0 | 0.00 | 0.00 | 0.00 | 49 | 1022.6 |
| 20260503054206 | 49 | 135 | 1.0 | 2.0 | 0.00 | 0.00 | 0.00 | 52 | 1022.6 |
| 20260503053307 | 47 | 0.0 | 2.0 | 0.00 | 0.00 | 0.00 | 55 | 1022.6 | |
| 20260503052406 | 46 | 0.0 | 2.0 | 0.00 | 0.00 | 0.00 | 59 | 1022.7 | |
| 20260503051504 | 44 | 0.0 | 2.0 | 0.00 | 0.00 | 0.00 | 61 | 1022.8 | |
| 20260503050604 | 43 | 0.0 | 2.0 | 0.00 | 0.00 | 0.00 | 63 | 1022.6 | |
| 20260503045743 | 42 | 135 | 1.0 | 2.0 | 0.00 | 0.00 | 0.00 | 67 | 1022.7 |
| 20260503044822 | 40 | 0.0 | 2.0 | 0.00 | 0.00 | 0.00 | 71 | 1022.5 | |
| 20260503043902 | 37 | 113 | 1.0 | 2.0 | 0.00 | 0.00 | 0.00 | 75 | 1022.5 |
| 20260503042100 | 36 | 0.0 | 2.0 | 0.00 | 0.00 | 0.00 | 77 | 1022.5 | |
| 20260503041200 | 36 | 0.0 | 2.0 | 0.00 | 0.00 | 0.00 | 77 | 1022.7 | |
| 20260503040259 | 35 | 0.0 | 2.0 | 0.00 | 0.00 | 0.00 | 77 | 1022.5 | |
| 20260503035418 | 35 | 0.0 | 2.0 | 0.00 | 0.00 | 0.00 | 77 | 1022.5 | |
| 20260503034458 | 34 | 0.0 | 1.0 | 0.00 | 0.00 | 0.00 | 77 | 1022.4 | |
| 20260503033557 | 34 | 0.0 | 2.0 | 0.00 | 0.00 | 0.00 | 78 | 1022.5 | |
| 20260503032656 | 33 | 1.0 | 2.0 | 0.00 | 0.00 | 0.00 | 78 | 1022.5 | |
| 20260503031756 | 33 | 0.0 | 2.0 | 0.00 | 0.00 | 0.00 | 78 | 1022.5 | |
| 20260503030855 | 32 | 0.0 | 1.0 | 0.00 | 0.00 | 0.00 | 77 | 1022.3 | |
| 20260503025054 | 32 | 0.0 | 0.0 | 0.00 | 0.00 | 0.00 | 76 | 1022.2 | |
| 20260503024154 | 33 | 0.0 | 0.0 | 0.00 | 0.00 | 0.00 | 76 | 1022.4 | |
| 20260503023315 | 33 | 0.0 | 0.0 | 0.00 | 0.00 | 0.00 | 76 | 1022.3 | |
| 20260503022352 | 33 | 0.0 | 1.0 | 0.00 | 0.00 | 0.00 | 76 | 1022.3 | |
| 20260503021452 | 33 | 0.0 | 0.0 | 0.00 | 0.00 | 0.00 | 76 | 1022.3 | |
| 20260503020612 | 33 | 0.0 | 0.0 | 0.00 | 0.00 | 0.00 | 75 | 1022.2 | |
| 20260503015650 | 33 | 0.0 | 0.0 | 0.00 | 0.00 | 0.00 | 74 | 1022.3 | |
| 20260503014810 | 33 | 0.0 | 0.0 | 0.00 | 0.00 | 0.00 | 74 | 1022.5 | |
| 20260503013849 | 34 | 0.0 | 0.0 | 0.00 | 0.00 | 0.00 | 74 | 1022.5 | |
| 20260503012048 | 34 | 0.0 | 1.0 | 0.00 | 0.00 | 0.00 | 75 | 1022.5 | |
| 20260503011147 | 33 | 0.0 | 0.0 | 0.00 | 0.00 | 0.00 | 74 | 1022.4 | |
| 20260503010246 | 33 | 0.0 | 0.0 | 0.00 | 0.00 | 0.00 | 73 | 1022.4 | |
| 20260503005347 | 34 | 0.0 | 0.0 | 0.00 | 0.00 | 0.00 | 73 | 1022.3 | |
| 20260503004445 | 34 | 0.0 | 0.0 | 0.00 | 0.00 | 0.00 | 72 | 1022.4 | |
| 20260503003544 | 34 | 0.0 | 0.0 | 0.00 | 0.00 | 0.00 | 72 | 1022.4 | |
| 20260503002704 | 34 | 0.0 | 0.0 | 0.00 | 0.00 | 0.00 | 72 | 1022.4 | |
| 20260503001743 | 34 | 0.0 | 1.0 | 0.00 | 0.00 | 0.00 | 71 | 1022.4 | |
| 20260503000842 | 35 | 0.0 | 1.0 | 0.00 | 0.00 | 0.00 | 71 | 1022.5 | |
| 20260502235042 | 35 | 0.0 | 0.0 | 0.00 | 0.00 | 0.00 | 71 | 1022.6 | |
| 20260502234201 | 35 | 0.0 | 0.0 | 0.00 | 0.00 | 0.00 | 70 | 1022.6 | |
| 20260502233240 | 35 | 0.0 | 0.0 | 0.00 | 0.00 | 0.00 | 69 | 1022.7 | |
| 20260502232340 | 35 | 0.0 | 0.0 | 0.00 | 0.00 | 0.00 | 69 | 1022.8 | |
| 20260502231439 | 35 | 0.0 | 0.0 | 0.00 | 0.00 | 0.00 | 68 | 1022.8 | |
| 20260502230538 | 36 | 0.0 | 0.0 | 0.00 | 0.00 | 0.00 | 67 | 1022.9 | |
| 20260502225658 | 36 | 0.0 | 0.0 | 0.00 | 0.00 | 0.00 | 67 | 1022.9 | |
| 20260502224737 | 36 | 0.0 | 0.0 | 0.00 | 0.00 | 0.00 | 66 | 1023.0 | |
| 20260502223836 | 36 | 0.0 | 0.0 | 0.00 | 0.00 | 0.00 | 65 | 1023.0 | |
| 20260502222037 | 37 | 0.0 | 0.0 | 0.00 | 0.00 | 0.00 | 65 | 1023.2 | |
| 20260502221135 | 37 | 0.0 | 0.0 | 0.00 | 0.00 | 0.00 | 64 | 1023.2 | |
| 20260502220234 | 37 | 0.0 | 0.0 | 0.00 | 0.00 | 0.00 | 63 | 1023.3 | |
| 20260502215355 | 37 | 0.0 | 0.0 | 0.00 | 0.00 | 0.00 | 62 | 1023.2 | |
| 20260502214434 | 38 | 0.0 | 0.0 | 0.00 | 0.00 | 0.00 | 61 | 1023.3 | |
| 20260502213534 | 38 | 0.0 | 0.0 | 0.00 | 0.00 | 0.00 | 60 | 1023.3 | |
| 20260502212631 | 38 | 0.0 | 1.0 | 0.00 | 0.00 | 0.00 | 60 | 1023.3 | |
| 20260502211730 | 39 | 0.0 | 0.0 | 0.00 | 0.00 | 0.00 | 59 | 1023.2 | |
| 20260502210831 | 39 | 0.0 | 0.0 | 0.00 | 0.00 | 0.00 | 57 | 1023.3 | |
| 20260502205031 | 40 | 0.0 | 0.0 | 0.00 | 0.00 | 0.00 | 56 | 1023.4 | |
| 20260502204128 | 40 | 0.0 | 0.0 | 0.00 | 0.00 | 0.00 | 54 | 1023.3 | |
| 20260502203229 | 40 | 0.0 | 0.0 | 0.00 | 0.00 | 0.00 | 53 | 1023.4 | |
| 20260502202327 | 41 | 0.0 | 0.0 | 0.00 | 0.00 | 0.00 | 51 | 1023.5 | |
| 20260502201428 | 42 | 0.0 | 0.0 | 0.00 | 0.00 | 0.00 | 50 | 1023.4 | |
| 20260502200547 | 42 | 0.0 | 1.0 | 0.00 | 0.00 | 0.00 | 48 | 1023.3 | |
| 20260502195625 | 42 | 0.0 | 1.0 | 0.00 | 0.00 | 0.00 | 47 | 1023.3 | |
| 20260502194744 | 43 | 0.0 | 1.0 | 0.00 | 0.00 | 0.00 | 46 | 1023.2 | |
| 20260502193824 | 43 | 0.0 | 1.0 | 0.00 | 0.00 | 0.00 | 43 | 1023.2 | |
| 20260502192024 | 44 | 0.0 | 1.0 | 0.00 | 0.00 | 0.00 | 41 | 1023.2 | |
| 20260502191122 | 45 | 0.0 | 1.0 | 0.00 | 0.00 | 0.00 | 39 | 1023.3 | |
| 20260502190221 | 45 | 0.0 | 1.0 | 0.00 | 0.00 | 0.00 | 37 | 1023.2 | |
| 20260502185320 | 46 | 0.0 | 0.0 | 0.00 | 0.00 | 0.00 | 36 | 1023.0 | |
| 20260502184420 | 46 | 0.0 | 2.0 | 0.00 | 0.00 | 0.00 | 34 | 1023.0 | |
| 20260502183539 | 47 | 0.0 | 1.0 | 0.00 | 0.00 | 0.00 | 32 | 1022.9 | |
| 20260502182619 | 47 | 0.0 | 2.0 | 0.00 | 0.00 | 0.00 | 31 | 1023.0 | |
| 20260502181820 | 47 | 0.0 | 0.0 | 0.00 | 0.00 | 0.00 | 29 | 1022.9 | |
| 20260502180817 | 49 | 0.0 | 2.0 | 0.00 | 0.00 | 0.00 | 26 | 1022.8 | |
| 20260502163811 | 55 | 113 | 1.0 | 4.0 | 0.00 | 0.00 | 0.00 | 14 | 1022.5 |
| 20260502162910 | 55 | 0.0 | 2.0 | 0.00 | 0.00 | 0.00 | 13 | 1022.5 | |
| 20260502161109 | 55 | 0.0 | 2.0 | 0.00 | 0.00 | 0.00 | 13 | 1022.6 | |
| 20260502160209 | 56 | 158 | 1.0 | 3.0 | 0.00 | 0.00 | 0.00 | 12 | 1022.5 |
| 20260502151705 | 57 | 135 | 1.0 | 4.0 | 0.00 | 0.00 | 0.00 | 11 | 1022.9 |
| 20260502150804 | 58 | 113 | 0.0 | 2.0 | 0.00 | 0.00 | 0.00 | 10 | 1023.0 |
| 20260502130156 | 60 | 135 | 1.0 | 3.0 | 0.00 | 0.00 | 0.00 | 1023.1 | |
| 20260502123454 | 59 | 1.0 | 2.0 | 0.00 | 0.00 | 0.00 | 10 | 1023.3 | |
| 20260502122635 | 59 | 135 | 2.0 | 4.0 | 0.00 | 0.00 | 0.00 | 1023.5 | |
| 20260502121654 | 59 | 0.0 | 2.0 | 0.00 | 0.00 | 0.00 | 1023.4 | ||
| 20260502120812 | 60 | 135 | 2.0 | 4.0 | 0.00 | 0.00 | 0.00 | 1023.6 | |
| 20260502115851 | 59 | 135 | 2.0 | 6.0 | 0.00 | 0.00 | 0.00 | 1023.5 | |
| 20260502114052 | 58 | 113 | 3.0 | 5.0 | 0.00 | 0.00 | 0.00 | 1023.6 | |
| 20260502113149 | 58 | 1.0 | 3.0 | 0.00 | 0.00 | 0.00 | 1023.6 | ||
| 20260502112249 | 59 | 158 | 2.0 | 4.0 | 0.00 | 0.00 | 0.00 | 1023.8 | |
| 20260502111348 | 59 | 2.0 | 4.0 | 0.00 | 0.00 | 0.00 | 1023.7 | ||
| 20260502110528 | 60 | 2.0 | 5.0 | 0.00 | 0.00 | 0.00 | 1023.6 | ||
| 20260502105607 | 60 | 2.0 | 2.0 | 0.00 | 0.00 | 0.00 | 1023.7 | ||
| 20260502104646 | 61 | 135 | 1.0 | 4.0 | 0.00 | 0.00 | 0.00 | 1023.6 | |
| 20260502103746 | 58 | 135 | 2.0 | 6.0 | 0.00 | 0.00 | 0.00 | 1023.8 | |
| 20260502102845 | 58 | 121 | 1.0 | 5.0 | 0.00 | 0.00 | 0.00 | 1023.7 | |
| 20260502101044 | 59 | 135 | 1.0 | 2.0 | 0.00 | 0.00 | 0.00 | 1023.5 | |
| 20260502100143 | 59 | 158 | 2.0 | 5.0 | 0.00 | 0.00 | 0.00 | 1023.6 | |
| 20260502090741 | 61 | 135 | 1.0 | 4.0 | 0.00 | 0.00 | 0.00 | 1023.8 | |
| 20260502071031 | 60 | 113 | 2.0 | 6.0 | 0.00 | 0.00 | 0.00 | 13 | 1023.6 |
| 20260502070130 | 59 | 1.0 | 2.0 | 0.00 | 0.00 | 0.00 | 15 | 1023.5 | |
| 20260502065230 | 58 | 0.0 | 1.0 | 0.00 | 0.00 | 0.00 | 25 | 1023.5 | |
| 20260502064329 | 56 | 135 | 2.0 | 2.0 | 0.00 | 0.00 | 0.00 | 27 | 1023.4 |
| 20260502063429 | 54 | 0.0 | 1.0 | 0.00 | 0.00 | 0.00 | 35 | 1023.4 | |
| 20260502062548 | 53 | 113 | 1.0 | 2.0 | 0.00 | 0.00 | 0.00 | 34 | 1023.4 |
| 20260502061627 | 53 | 0.0 | 2.0 | 0.00 | 0.00 | 0.00 | 39 | 1023.5 | |
| 20260502060727 | 52 | 0.0 | 1.0 | 0.00 | 0.00 | 0.00 | 41 | 1023.5 | |
| 20260502055826 | 51 | 0.0 | 1.0 | 0.00 | 0.00 | 0.00 | 44 | 1023.4 |